Regional Weather Roundup
Issued by NWS Newport/Morehead, NC

Current Version | Previous Version | Graphics & Text | Print | Product List | Glossary Off
Versions: 1 2 3 4 5 6 7 8 9 10 11 12 13 14 15 16 17 18 19 20 21 22 23 24 25 26 27 28 29 30 31 32 33 34 35 36 37 38 39 40 41 42 43 44 45 46 47 48 49 50

000
ASUS42 KMHX 312125
RWRMHX
WEATHER ROUNDUP FOR EASTERN NORTH CAROLINA
NATIONAL WEATHER SERVICE NEWPORT/MOREHEAD CITY NC
500 PM EDT MON AUG 31 2015

NOTE: "FAIR" INDICATES FEW OR NO CLOUDS BELOW 12,000 FEET
WITH NO SIGNIFICANT WEATHER AND/OR OBSTRUCTIONS TO VISIBILITY

NCZ015>017-031-032-045>047-102-103-312200-
NORTH COAST

CITY           SKY/WX    TMP DP  RH WIND       PRES   REMARKS
EDENTON        CLOUDY    74  71  89 SE10      30.08F
ELIZABETH CITY LGT RAIN  73  71  93 SE12      30.09F
KITTY HAWK     DRIZZLE   75  70  85 CALM      30.09S
MANTEO         DRIZZLE   74  72  92 S3        30.10F

$$

NCZ045>047-081-094-103-104-312200-
CENTRAL COAST

CITY           SKY/WX    TMP DP  RH WIND       PRES   REMARKS
FRISCO         CLOUDY    76  73  91 SE9       30.09F
SWANQUARTER    NOT AVBL

$$

NCZ095-097-098-100-101-312200-
SOUTHERN COAST

CITY           SKY/WX    TMP DP  RH WIND       PRES   REMARKS
BEAUFORT       CLOUDY    77  76  96 SE14      30.06F
CEDAR ISLAND   NOT AVBL
JACKSONVILLE   PTSUNNY   79  73  82 SE7       30.05S
PINEY ISLAND   MOCLDY   N/A N/A N/A SE13      30.07S
WILMINGTON     RAIN      77  74  90 E9        30.03S FOG


$$

NCZ011>013-027>030-043-044-078>080-089-090>093-098-312200-
COASTAL PLAIN

CITY           SKY/WX    TMP DP  RH WIND       PRES   REMARKS
AHOSKIE        RAIN      72  69  90 SE5       30.09S
CLINTON        PTSUNNY   82  75  79 CALM      30.04R
ELIZABETHTOWN  PTSUNNY   82  72  71 S5        30.04R
GOLDSBORO      LGT RAIN  79  74  84 NE3       30.04S
GREENVILLE     CLOUDY    79  73  83 SE6       30.08S
HAVELOCK       RAIN      79  74  84 SE8       30.07S
KENANSVILLE      N/A     79  75  87 SE5       30.05S
KINSTON        PTSUNNY   79  73  83 CALM      30.06F
NEW BERN       CLOUDY    79  73  82 S3        30.06F
RICHLANDS      CLOUDY    81  72  74 SE6       30.05S
ROCKY MOUNT    CLOUDY    76  72  87 E5        30.07S
WASHINGTON     PTSUNNY   77  73  85 SE5       30.07R
WHITEVILLE     CLOUDY    78  75  91 E5        30.03S

$$

AMZ130-135-150-152-154-156-158-170-250-252-270-ANZ085-086-088-633-658-670-312200-
MARINE OBSERVATIONS

STATION/POSITION TIME  TEMP    WIND        PRES    WAVE   SWELL
                       AIR SEA DIR/SP/G            HT/PER HT/PER
                 (UTC) (F)     (DEG/KT/KT) (MB)    (FT/S) (FT/S)
CHESAPEAKE LIGHT 2100   76     190/  8/ 10 1019.8
64 E VA BEACH    2050   78 78  200/  8/ 10 1019.3    3/ 9   3/ 9
DUCK             2100   74 79  150/  7/  9 1018.4
2 E DUCK         2011      78                N/A     2/ 9
OREGON INLET     2100   75 80  120/  7/ 10 1019.2
13E OREGON INLT  2100      79                N/A     3/10   2/11
HATTERAS CG      2100   77 80  140/  8/ 12 1018.3
DIAMOND BUOY     2050   78 84  170/  8/ 10 1019.0    3/ 9   3/ 9
CAPE LOOKOUT     2100   75     150/  6/  7 1018.2
BEAUFORT LAB     2100   77 79  150/  8/ 13 1017.3
30 SE NEW RVR IN 2008   77 81   90/  8/ 12 1019.4
30 SE NEW RVR IN 2025      81                N/A     4/ 7
27 SE WRIGHTSVLE 2100   73 81   70/  6/  6   N/A
5 SE WRIGHTSVLE  2008   79 82   60/ 14/ 17 1016.9
225 S CAPE HAT   2050   84 84  190/ 14/ 16 1018.7    4/ 7   3/ 7
41 SE CHARLESTON 2050   81 83  270/ 10/ 12 1016.4    5/ 9   5/ 9

$$


USA.gov is the U.S. government's official web portal to all federal, state and local government web resources and services.